Weather History for KVPS - November, 2013

Change the Weather History Date:

Friday, November 8, 2013

  Actual Average Record
Temperature  
Mean Temperature 55 °F -  
Max Temperature 66 °F - - ()
Min Temperature 44 °F - - ()
Degree Days  
Heating Degree Days 10    
Growing Degree Days 5 (Base 50)    
Moisture  
Dew Point 36 °F    
Average Humidity 56    
Maximum Humidity 76    
Minimum Humidity 32    
Precipitation  
Precipitation 0.00 in - - ()
Sea Level Pressure  
Sea Level Pressure 30.24 in    
Wind  
Wind Speed 12 mph (NNE)    
Max Wind Speed 16 mph    
Max Gust Speed 23 mph    
Visibility 10 miles    
Events      
T = Trace of Precipitation, MM = Missing Value Source: NWS Daily Summary

Daily Weather History Graph

Daily Weather History Graph

Search for Another Location

Airport or City:

Trip Planner

Search our weather history database for the weather conditions in past years. The results will help you decide how hot, cold, wet, or windy it might be!

Date:

Astronomy

Nov. 08, 2013 Rise Set
Actual Time 6:06 AM CST 4:52 PM CST
Civil Twilight 5:41 AM CST 5:18 PM CST
Nautical Twilight 5:12 AM CST 5:46 PM CST
Astronomical Twilight 4:44 AM CST 6:15 PM CST
Moon 11:01 AM CST (11/8) 10:11 PM CST (11/8)
Length of Visible Light 11h 36m
Length of Day
10h 46m
Waxing Crescent, 33% of the Moon is Illuminated
Nov 8
Waxing Crescent
Nov 9
First Quarter
Nov 17
Full
Nov 25
Last Quarter
Dec 2
New

Hourly Weather History & Observations

Time (CST) Temp. Windchill Dew Point Humidity Pressure Visibility Wind Dir Wind Speed Gust Speed Precip Events Conditions
12:55 AM 48.6 °F - 37.8 °F 66% 30.22 in 10.0 mi North 12.7 mph - N/A   Clear
1:55 AM 47.3 °F - 36.7 °F 67% 30.22 in 10.0 mi North 12.7 mph - N/A   Clear
2:55 AM 46.2 °F 40.1 °F 35.1 °F 65% 30.21 in 10.0 mi North 13.8 mph - N/A   Clear
3:55 AM 45.9 °F 40.4 °F 34.5 °F 65% 30.23 in 10.0 mi NNE 11.5 mph - N/A   Clear
4:55 AM 45.0 °F 38.9 °F 34.3 °F 66% 30.24 in 10.0 mi NNE 12.7 mph - N/A   Clear
5:55 AM 44.6 °F 38.4 °F 34.0 °F 66% 30.26 in 10.0 mi NNE 12.7 mph - N/A   Partly Cloudy
6:55 AM 45.3 °F 39.3 °F 33.8 °F 64% 30.28 in 10.0 mi NNE 12.7 mph - N/A   Partly Cloudy
7:55 AM 49.1 °F - 33.1 °F 54% 30.30 in 10.0 mi NNE 15.0 mph 23.0 mph N/A   Partly Cloudy
8:55 AM 54.5 °F - 32.2 °F 43% 30.30 in 10.0 mi NE 16.1 mph - N/A   Clear
9:55 AM 57.4 °F - 33.1 °F 40% 30.30 in 10.0 mi NE 15.0 mph - N/A   Partly Cloudy
10:56 AM 60.3 °F - 34.2 °F 38% 30.27 in 10.0 mi NE 16.1 mph - N/A   Partly Cloudy
11:55 AM 62.6 °F - 35.1 °F 36% 30.24 in 10.0 mi NNE 12.7 mph - N/A   Partly Cloudy
12:55 PM 65.1 °F - 35.4 °F 33% 30.21 in 10.0 mi NE 12.7 mph - N/A   Scattered Clouds
1:55 PM 66.0 °F - 35.1 °F 32% 30.20 in 10.0 mi NNE 11.5 mph - N/A   Scattered Clouds
2:55 PM 66.2 °F - 35.1 °F 32% 30.19 in 10.0 mi NNE 12.7 mph - N/A   Mostly Cloudy
3:56 PM 63.7 °F - 36.0 °F 36% 30.20 in 10.0 mi NE 12.7 mph - N/A   Mostly Cloudy
4:56 PM 59.9 °F - 38.1 °F 44% 30.19 in 10.0 mi NE 8.1 mph - N/A   Mostly Cloudy
5:55 PM 53.8 °F - 40.8 °F 62% 30.21 in 10.0 mi North 4.6 mph - N/A   Mostly Cloudy
6:56 PM 50.4 °F - 40.3 °F 68% 30.22 in 10.0 mi NNE 4.6 mph - N/A   Scattered Clouds
7:55 PM 49.1 °F - 40.1 °F 71% 30.23 in 10.0 mi NNE 6.9 mph - N/A   Partly Cloudy
8:55 PM 48.2 °F - 40.8 °F 76% 30.24 in 10.0 mi NNE 5.8 mph - N/A   Partly Cloudy
9:57 PM 47.7 °F - 40.5 °F 76% 30.24 in 10.0 mi NE 8.1 mph - N/A   Partly Cloudy
10:55 PM 48.9 °F - 39.2 °F 69% 30.24 in 10.0 mi NE 6.9 mph - N/A   Partly Cloudy
11:55 PM 50.2 °F - 38.5 °F 64% 30.22 in 10.0 mi East 5.8 mph - N/A   Partly Cloudy